Flag for U.S.A. Weather past 2 weeks in Rochester, New York, U.S.A.

Now
65 °F

Light rain. Broken clouds.


Feels Like: 65 °F
Forecast: 59 / 71 °F
Wind: 6 mph from South

Location: Greater Rochester International Airport

Current Time: Jul 30, 2014 at 5:29:51 PM

Latest Report: Jul 30, 2014 at 4:54 PM


Visibility: 10 mi

Pressure: 29.97 "Hg

Humidity: 81%

Dew point: 59 °F

Location of RochesterLocation

Historic Weather in Rochester — Graph

°F

Rochester temperature yesterday

Maximum temperature yesterday: 69 °F (at 2:54 PM)
Minimum temperature yesterday: 55 °F (at 3:54 AM)
Average temperature yesterday: 62 °F

Past Weeks' High & Low Weather Summary

 TemperatureHumidityPressure
High84 °F (Jul 22, 12:54 PM)100% (Jul 22, 4:04 AM)30.26 "Hg (Jul 22, 4:04 AM)
Low52 °F (Jul 25, 5:54 AM)37% (Jul 18, 1:54 PM)29.54 "Hg (Jul 28, 6:54 AM)
Average68 °F72%29.97 "Hg
* Reported Jul 15 3:54 PM — Jul 30 3:54 PM, Rochester, Weather by CustomWeather, © 2014

Note: Actual official high and low records may vary slightly from our data, if they occured in-between our weather recording intervals... More about our weather records

Advertising

Rochester weather history for previous 24 hours

 ConditionsComfort  
Time TempWeatherWind HumidityBarometerVisibility
3:54 PM
Jul 30
65 °FLight rain. Partly sunny.5 mph81%29.97 "Hg10 mi
2:54 PM65 °FLight rain. Cloudy.8 mph76%29.97 "Hg10 mi
1:54 PM74 °FMostly cloudy.5 mph53%29.96 "Hg10 mi
12:54 PM73 °FPartly sunny.8 mph59%29.96 "Hg10 mi
11:54 AM70 °FPartly sunny.8 mph66%29.98 "Hg10 mi
10:54 AM69 °FScattered clouds.9 mph66%29.99 "Hg10 mi
9:54 AM66 °FScattered clouds.6 mph68%29.99 "Hg10 mi
8:54 AM63 °FScattered clouds.8 mph73%29.99 "Hg10 mi
7:54 AM60 °FPartly sunny.7 mph78%29.98 "Hg10 mi
6:54 AM58 °FPartly cloudy.6 mph81%29.98 "Hg10 mi
5:54 AM57 °FPartly cloudy.7 mph83%29.98 "Hg10 mi
4:54 AM59 °FOvercast.8 mph81%29.97 "Hg10 mi
3:54 AM58 °FMostly cloudy.6 mph84%29.96 "Hg10 mi
2:54 AM58 °FDrizzle. Mostly cloudy.5 mph87%29.97 "Hg10 mi
1:54 AM59 °FOvercast.7 mph81%29.98 "Hg10 mi
12:54 AM58 °FPassing clouds.7 mph84%29.98 "Hg10 mi
11:54 PM
Jul 29
59 °FPassing clouds.7 mph81%29.98 "Hg10 mi
10:54 PM61 °FPassing clouds.5 mph75%29.98 "Hg10 mi
9:54 PM61 °FPassing clouds.5 mph75%29.98 "Hg10 mi
8:54 PM64 °FPartly sunny.5 mph68%29.97 "Hg10 mi
7:54 PM65 °FPartly sunny.5 mph70%29.98 "Hg10 mi
6:54 PM66 °FScattered clouds.7 mph63%29.97 "Hg10 mi
5:54 PM68 °FPartly sunny.5 mph51%29.96 "Hg10 mi
Weather by CustomWeather, © 2014

See weather overviewHow to use our weather pages